Wind_Speed
24 24 24 24 22 21 21 19 17 17 16 15 14 13 12 13 12 12 13 13 13 14 14 15 15 15 15 15 14 15 17 18 19 20 20 20 19 19 19 18 19 19 18 23 27 26 26 26 27 28 23 20
26 26 25 24 22 22 21 18 17 16 16 15 14 14 13 13 12 13 13 13 13 14 14 15 15 15 15 15 14 15 17 18 19 19 20 19 18 18 18 18 18 18 20 26 27 26 27 26 27 28 24 20
28 28 26 25 24 22 21 19 19 18 17 16 16 15 14 14 13 14 14 13 14 14 14 15 15 15 15 15 15 16 17 18 18 19 19 18 18 18 18 19 18 18 23 27 27 26 27 26 27 27 23 20
29 28 26 25 24 22 23 23 22 21 20 19 19 18 17 16 15 14 14 14 14 14 14 14 15 15 15 15 15 16 17 17 18 18 17 17 18 18 19 19 18 19 25 28 26 26 26 26 26 25 22 19
29 27 25 24 23 22 24 25 23 21 20 20 20 20 19 18 15 14 14 14 14 14 14 15 15 15 15 15 15 17 17 17 17 16 17 17 18 18 19 18 19 24 27 27 26 26 26 25 26 25 23 20
30 27 25 24 23 22 24 23 21 21 21 21 21 21 21 17 15 14 14 14 13 14 15 16 15 15 15 15 15 16 17 17 16 16 17 16 17 20 20 19 23 26 27 26 25 25 24 25 26 26 24 21
31 26 25 24 23 23 22 22 21 21 20 21 21 22 21 17 16 15 15 17 16 15 15 16 16 16 16 16 16 16 16 16 15 15 14 14 17 20 20 22 26 27 26 25 24 24 23 25 25 26 25 22
30 27 25 24 23 23 22 21 21 20 20 21 21 22 21 19 20 18 17 20 19 17 16 16 16 17 19 18 18 18 17 15 14 15 12 15 19 18 19 24 26 26 25 24 23 23 23 24 24 24 24 21
30 28 25 24 23 22 21 21 22 20 20 20 21 21 20 20 20 19 19 20 19 16 16 18 17 17 19 20 20 21 20 17 15 15 14 18 19 15 19 24 25 24 24 23 23 23 23 23 23 23 22 21
31 28 24 24 23 21 20 21 21 21 20 21 21 20 19 20 19 19 20 20 19 19 18 19 18 17 19 20 20 21 21 19 16 15 16 19 17 16 20 23 24 24 23 22 22 22 22 22 21 21 21 21
31 27 24 24 22 20 20 21 21 21 21 21 21 20 19 20 20 19 20 20 21 21 19 20 21 20 20 20 21 20 18 18 15 15 18 18 17 20 22 22 23 23 22 21 21 21 21 20 20 19 19 20
31 28 25 24 22 20 20 20 21 21 20 21 20 20 21 20 20 19 20 21 21 21 21 21 22 22 21 21 21 19 17 16 14 17 21 19 20 22 21 21 21 21 21 20 19 19 19 19 19 18 18 18
31 28 26 25 21 20 20 20 21 20 19 20 21 21 21 20 20 19 20 21 22 22 22 22 22 22 23 22 20 18 16 15 15 19 21 20 21 22 20 19 20 20 19 19 19 19 18 18 18 17 17 16
31 29 27 26 21 19 20 20 20 19 19 20 20 20 20 20 20 20 21 22 22 22 22 22 22 22 22 21 19 18 16 15 16 20 21 21 23 23 20 18 19 19 19 19 19 19 18 18 18 18 17 17
33 31 28 26 22 19 20 20 20 20 19 19 20 20 20 21 20 21 21 21 22 22 22 22 22 22 22 20 19 18 17 16 17 20 22 23 23 22 20 19 19 18 19 20 20 20 20 20 20 18 18 17
33 31 28 26 23 21 20 21 22 21 20 19 20 20 20 20 20 21 21 21 22 22 22 22 23 23 22 21 20 19 17 16 18 21 22 24 24 23 21 21 21 20 19 20 21 21 21 20 19 18 17 16
34 32 29 27 25 23 22 22 22 22 21 20 20 19 20 20 20 20 21 21 22 22 22 22 23 23 23 22 20 20 17 16 19 22 22 24 24 24 23 22 23 22 20 21 21 20 19 18 17 16 16 15
34 32 30 29 27 25 25 24 23 23 22 21 20 20 20 20 20 21 21 21 22 22 23 22 23 24 24 23 21 20 17 16 20 22 23 24 23 24 23 22 23 21 20 21 20 20 19 17 16 16 14 14
35 33 32 32 30 28 27 26 25 24 23 22 21 20 20 20 20 21 21 21 22 23 23 23 24 24 25 24 22 20 18 18 21 22 23 24 23 22 21 21 21 19 18 19 19 18 17 16 15 14 13 13
37 35 34 34 32 30 29 28 27 25 24 23 22 21 21 20 20 20 21 21 22 23 24 23 24 25 25 24 23 21 20 20 22 22 23 23 22 20 19 20 19 16 17 18 18 17 15 15 15 13 13 13
38 36 35 34 32 31 31 30 29 26 25 24 23 22 21 21 20 20 21 22 23 24 24 24 24 25 25 24 24 22 22 23 23 24 23 22 21 18 17 19 18 15 15 16 16 16 14 15 14 12 12 12
37 36 34 33 32 31 31 30 29 27 26 25 24 23 22 21 21 21 22 22 23 24 25 25 25 26 25 25 25 23 24 25 25 26 24 21 22 18 14 16 17 15 14 15 15 14 14 15 13 11 11 13
34 34 33 33 31 30 30 30 29 28 27 26 25 24 23 21 21 21 22 22 23 25 25 25 26 25 25 25 26 25 25 26 26 28 25 21 21 20 15 13 14 14 14 14 13 12 13 13 11 10 12 13
33 33 31 30 30 30 30 30 29 28 28 28 27 25 24 23 22 22 21 22 24 25 25 26 26 26 25 26 27 27 27 27 28 30 28 24 21 21 17 14 13 13 14 12 11 10 10 11 11 11 13 13
37 36 33 31 32 32 31 31 30 29 30 29 27 26 25 25 25 23 22 23 24 26 26 27 27 26 27 28 28 28 27 27 28 30 29 25 23 22 18 15 14 15 14 12 10 9 8 9 11 13 13 13
39 39 38 35 35 35 34 33 33 32 31 30 28 27 27 27 26 25 24 24 25 26 27 28 28 28 29 29 29 28 26 26 27 29 29 25 22 21 18 15 16 19 16 12 12 10 8 8 10 13 15 14
38 37 35 31 30 33 33 32 32 32 31 31 30 30 29 28 28 27 26 25 25 27 28 29 29 29 30 30 31 28 25 25 27 29 29 27 22 19 18 14 16 22 19 12 11 10 7 7 7 10 13 17
35 33 30 26 24 27 28 28 29 29 28 30 31 30 30 30 29 28 27 26 27 28 29 30 31 31 31 31 32 30 26 27 29 29 29 29 24 20 19 15 17 24 23 15 11 9 5 4 5 6 9 14
34 33 31 26 20 20 22 21 23 26 28 29 31 32 32 32 31 29 29 29 29 29 30 32 32 32 32 33 33 32 29 28 31 31 31 32 27 22 21 17 17 23 27 24 17 11 5 2 4 5 5 9
35 34 33 31 26 24 24 24 27 32 34 34 34 35 35 35 34 32 31 31 31 31 31 32 33 34 34 34 35 35 31 28 30 32 33 33 29 25 23 19 16 21 29 31 27 21 12 5 3 2 4 6
37 36 35 35 34 31 31 30 31 33 33 34 36 35 35 36 36 35 34 33 33 33 33 33 34 35 36 36 36 37 34 31 32 33 34 35 33 28 25 21 18 20 27 30 31 31 23 14 8 2 4 4
Wind_Direction
150 147 147 144 140 143 142 143 145 146 146 143 138 135 134 131 128 127 129 131 130 131 130 129 128 127 127 125 124 128 132 133 130 130 128 124 122 119 118 116 118 121 115 122 132 133 132 130 131 122 109 111
151 149 146 144 142 144 146 147 148 148 147 144 142 140 138 135 131 130 132 133 133 133 132 132 130 128 127 126 127 132 134 133 130 130 128 125 123 121 120 119 121 119 118 128 134 134 133 130 130 123 108 108
151 149 147 145 145 147 149 150 151 152 152 150 148 145 143 138 134 134 135 135 135 135 135 133 133 133 128 125 129 136 136 133 132 131 132 128 125 125 123 125 122 116 122 130 135 135 134 132 131 123 108 105
150 151 150 148 148 152 155 156 159 160 159 157 152 149 146 140 134 134 135 137 137 137 137 137 138 135 130 127 129 137 137 133 134 135 135 132 130 132 129 128 120 119 127 131 135 137 136 135 131 121 107 101
150 153 154 153 156 161 163 164 166 165 163 161 156 154 149 140 135 137 138 137 140 142 138 138 142 138 132 131 132 138 139 137 138 136 135 134 132 134 131 127 124 127 131 133 136 137 137 137 130 122 111 101
152 153 153 158 164 167 168 168 170 169 166 164 159 158 154 142 135 137 139 139 145 149 143 138 138 142 138 133 136 139 139 138 135 133 135 134 136 140 139 133 130 131 133 135 138 139 139 135 128 124 116 104
152 152 156 164 169 170 170 170 172 172 169 167 164 163 158 149 145 142 145 152 152 148 151 147 139 144 146 139 140 140 138 134 132 136 133 136 150 157 153 139 132 133 133 136 138 140 139 135 130 127 120 107
156 158 165 170 171 172 173 173 175 176 173 171 169 167 164 162 164 158 153 156 152 146 152 157 151 147 148 147 146 146 143 137 146 153 139 146 160 164 157 141 135 137 137 138 140 140 139 136 135 131 124 113
167 168 171 173 174 176 178 178 179 179 177 174 173 172 171 171 172 167 159 156 154 152 152 157 156 149 152 156 155 158 158 153 165 174 157 154 160 162 158 145 139 142 141 143 143 142 140 138 138 134 130 122
175 174 175 178 181 181 181 181 180 180 178 175 176 177 175 173 173 171 167 165 164 163 159 161 161 158 162 165 163 167 170 169 178 180 164 160 164 165 160 150 147 148 147 148 148 147 145 142 141 138 135 130
174 175 182 185 185 185 183 182 181 180 179 177 178 179 177 175 175 174 172 172 172 169 167 168 168 167 169 171 171 173 179 182 183 176 167 168 172 168 161 154 153 154 154 154 153 153 152 149 147 144 141 139
177 180 188 189 187 186 183 181 182 182 180 178 178 180 181 180 179 177 177 177 177 176 175 175 175 173 174 176 179 182 187 188 180 171 170 173 173 168 163 159 157 159 160 159 159 158 157 156 154 152 149 147
183 186 190 191 189 186 183 182 185 184 180 180 180 183 184 185 184 182 182 182 181 181 182 182 181 179 180 184 187 190 191 190 179 170 170 171 170 169 166 164 164 165 165 165 165 165 163 162 161 159 158 156
189 190 192 194 193 189 186 186 187 185 182 182 184 185 186 188 189 187 187 187 186 185 187 187 186 185 187 190 193 193 193 191 180 172 169 169 169 170 169 170 171 170 171 171 169 169 167 165 163 161 160 157
191 192 194 197 198 195 193 191 187 187 188 186 187 188 188 190 192 193 192 191 190 189 190 190 190 191 192 195 196 196 198 194 184 176 171 170 170 171 172 173 172 170 170 170 168 168 166 163 161 159 158 156
192 195 197 199 201 201 201 197 191 190 191 190 191 191 190 192 194 196 196 194 194 193 192 192 194 194 195 198 199 201 203 199 189 179 174 173 172 173 173 172 170 167 166 167 166 166 165 162 160 158 158 159
195 198 200 201 203 207 207 202 198 194 192 193 195 193 192 194 195 197 197 197 198 197 196 196 197 197 198 200 203 206 208 206 194 183 179 177 174 174 172 171 170 168 166 167 166 165 164 162 161 161 161 163
196 199 202 203 205 209 208 205 202 199 196 195 195 194 195 196 196 198 199 199 199 199 199 200 200 200 201 204 206 209 213 209 196 187 184 179 176 174 172 172 171 168 167 167 166 167 165 164 166 165 166 168
198 202 205 205 206 207 206 206 204 203 201 197 196 197 197 197 199 201 202 202 201 201 202 202 202 202 204 207 207 209 213 205 194 190 187 180 177 175 173 173 172 169 170 169 168 169 167 168 169 167 171 173
199 203 207 206 206 206 205 205 204 205 204 199 198 199 199 200 201 203 204 204 203 203 204 204 204 205 207 208 206 208 210 201 194 192 188 183 179 177 177 176 174 173 172 171 171 170 170 172 171 169 174 175
200 203 206 206 206 206 204 204 204 205 205 202 199 200 202 203 203 205 206 206 205 205 206 205 206 208 210 208 206 208 207 199 196 195 191 187 185 182 182 180 176 174 174 174 174 172 174 175 173 173 178 180
200 202 204 205 206 206 206 206 204 204 204 203 201 202 205 204 205 207 207 208 207 207 208 207 208 210 211 208 206 207 202 198 198 197 194 192 190 187 185 183 181 177 175 175 174 176 179 178 177 179 184 186
199 200 202 203 203 203 204 206 206 205 204 204 203 204 206 206 208 209 208 209 208 208 208 207 209 211 210 207 205 203 199 197 199 199 196 195 195 192 190 189 185 180 176 174 175 178 182 184 186 188 193 193
199 198 198 200 201 202 204 206 208 208 208 207 206 205 206 206 209 211 210 209 208 208 207 207 208 209 208 206 204 201 199 199 201 201 198 196 197 195 193 191 188 183 175 171 172 178 187 195 198 200 203 201
201 199 198 198 202 204 206 207 208 209 210 211 209 209 208 208 210 211 211 211 209 208 208 206 207 208 206 204 203 202 202 202 202 203 199 197 199 198 196 195 193 186 176 172 176 183 197 208 214 215 214 213
204 203 203 202 205 206 206 208 209 209 211 212 211 210 211 211 211 211 212 213 211 209 208 207 207 208 207 205 204 204 203 203 204 203 200 196 196 197 199 202 198 189 182 187 189 187 196 210 219 223 223 225
205 204 204 204 205 205 205 206 209 210 211 212 212 211 212 213 213 212 213 214 213 212 210 209 209 209 208 208 206 204 201 203 205 204 201 198 195 193 197 204 203 195 192 199 196 189 199 208 207 214 220 225
207 205 204 206 209 207 205 206 209 210 213 215 214 214 215 216 216 214 215 217 216 215 213 212 212 210 210 210 208 206 202 204 206 204 202 202 198 192 192 197 203 201 201 202 194 192 205 205 210 221 208 209
207 208 206 207 209 205 204 207 208 210 215 217 216 217 218 218 218 215 217 220 219 217 215 214 214 213 212 212 210 209 206 207 209 207 207 205 202 198 197 195 197 202 205 203 199 203 211 182 219 239 179 178
209 210 208 206 203 199 198 202 208 213 215 216 216 217 219 219 219 217 217 220 221 219 217 217 217 216 215 214 213 212 209 209 210 210 210 208 204 204 204 200 194 201 206 207 207 209 212 208 231 261 158 171
210 210 210 210 208 205 204 205 212 217 216 217 217 216 218 219 220 218 218 220 221 221 220 220 219 218 218 217 216 215 212 211 212 212 213 212 209 207 207 205 202 202 205 209 213 214 216 223 231 221 175 213
Height
814 816 818 819 821 823 824 826 828 830 831 832 833 834 835 836 837 838 839 840 841 841 842 842 842 843 843 844 845 846 846 847 847 847 848 848 848 848 849 849 850 850 850 850 850 851 852 853 853 854 856 858
815 817 818 819 821 824 824 826 829 830 831 832 833 834 836 837 837 838 840 841 842 842 843 843 844 844 844 845 846 847 848 848 848 849 849 849 849 849 850 850 851 851 851 851 851 852 853 854 855 855 857 859
815 817 818 819 822 824 824 826 829 830 830 831 833 834 836 837 838 839 841 842 843 844 844 844 845 845 845 846 848 848 849 849 850 850 850 850 850 851 851 851 852 852 852 852 853 853 854 855 856 857 858 860
815 816 818 820 822 823 824 825 827 828 829 830 832 834 835 837 838 840 842 843 844 845 845 845 846 846 847 847 849 849 850 851 851 852 852 852 852 852 852 852 852 852 853 853 854 854 855 856 857 858 860 861
815 817 818 820 821 823 824 825 827 828 829 830 832 834 835 837 839 841 842 844 845 846 846 846 847 847 848 849 850 851 851 852 852 853 853 853 853 853 852 852 852 853 853 854 855 856 856 857 858 859 860 862
815 817 819 820 821 823 825 826 827 828 829 830 832 834 835 837 839 841 843 844 846 847 847 847 848 849 849 850 851 852 852 853 853 854 854 854 853 852 852 852 853 854 855 856 856 857 858 858 859 860 861 863
815 817 818 820 821 823 825 826 827 828 829 830 832 833 835 837 839 841 842 843 845 847 848 848 849 849 850 851 852 853 853 853 854 854 854 854 854 853 853 854 854 855 856 857 858 859 859 860 861 861 862 863
814 816 818 819 821 823 825 826 827 828 829 830 831 833 835 836 838 840 841 843 845 847 849 849 849 849 850 851 852 853 853 853 853 854 854 854 855 855 856 855 855 856 857 858 859 860 860 861 862 862 863 864
813 815 817 819 822 823 824 826 827 828 829 830 831 832 834 836 837 840 842 844 846 847 848 849 850 850 851 851 852 853 853 853 853 853 854 855 856 857 857 856 856 857 858 859 859 860 861 862 862 863 864 864
812 814 817 819 821 822 824 825 826 827 829 830 831 832 834 836 838 840 842 844 845 847 848 849 850 851 851 852 853 853 853 853 853 854 855 855 856 857 857 857 857 857 858 859 860 861 861 862 863 864 864 865
811 814 817 819 821 822 823 825 826 827 828 829 830 832 834 836 838 839 841 843 845 846 848 849 850 851 852 853 853 853 854 854 854 854 855 855 856 857 857 857 858 858 859 860 860 861 862 863 864 864 865 866
811 813 816 818 820 821 822 824 825 826 827 828 830 831 833 835 837 839 840 842 844 846 847 849 850 851 852 853 853 853 854 854 854 854 854 855 856 857 858 858 859 859 860 860 861 862 863 863 864 865 865 866
810 813 815 817 819 820 822 823 824 825 826 827 829 830 832 834 836 838 840 841 843 845 847 848 849 851 852 853 853 854 854 854 854 854 854 855 856 858 859 859 860 860 860 861 862 862 863 864 864 865 865 866
809 812 814 816 818 819 820 822 823 824 825 826 828 829 831 834 836 837 839 840 842 844 846 847 849 850 851 852 853 854 854 854 854 854 854 855 856 857 859 860 860 861 861 861 862 862 863 864 864 865 865 866
808 811 813 815 817 818 819 820 822 823 824 825 827 828 830 832 835 837 838 839 841 843 845 847 848 849 851 852 853 854 854 854 854 854 854 855 856 857 858 859 860 861 861 861 862 862 863 864 864 865 865 866
808 810 812 813 815 817 818 819 821 822 823 824 825 827 829 831 833 835 837 838 840 842 844 845 847 848 850 851 852 853 854 854 854 854 854 855 855 856 857 859 859 860 861 862 862 863 863 864 864 865 865 866
807 809 810 812 814 815 817 818 820 821 822 823 824 826 828 830 832 834 836 837 838 841 842 844 845 847 848 850 851 853 853 854 855 855 855 855 855 856 857 858 859 860 861 861 862 863 863 864 864 865 865 866
805 808 809 811 812 814 816 817 818 820 821 822 824 825 827 829 831 833 834 836 837 839 841 843 844 846 847 848 850 852 853 854 855 855 855 855 856 856 857 858 858 859 860 861 862 862 863 864 864 865 865 865
804 806 807 809 810 812 814 816 817 819 820 821 823 824 826 828 830 831 833 834 836 838 840 841 843 844 845 847 849 850 852 853 854 855 855 856 856 857 857 858 858 859 860 860 861 862 862 863 864 864 865 865
801 804 805 807 808 810 812 814 816 817 819 820 821 823 825 826 828 830 831 833 834 836 838 840 841 843 844 845 847 849 850 852 854 855 855 856 856 857 857 857 858 859 860 860 860 861 862 862 863 864 864 865
800 802 803 805 807 809 811 812 814 816 817 819 820 822 823 825 826 828 830 831 833 835 836 838 840 841 842 844 846 847 848 850 852 854 855 856 856 857 857 857 858 859 859 860 860 861 861 862 862 863 864 864
799 800 802 804 806 807 809 811 812 814 816 817 819 820 822 823 825 826 828 830 831 833 834 836 837 839 840 842 844 845 847 849 850 852 854 855 856 856 857 858 858 858 859 859 860 861 861 861 862 863 863 863
798 799 801 802 804 806 808 809 811 813 814 815 817 818 820 822 823 824 826 828 829 831 832 834 835 836 838 841 842 844 845 847 848 850 852 854 855 856 857 857 858 858 858 859 860 860 861 861 862 862 862 862
796 798 800 801 803 804 806 808 810 812 813 814 815 816 818 819 821 822 824 826 827 828 830 831 833 834 836 838 840 842 843 844 845 847 849 851 853 855 856 857 857 857 858 859 860 860 861 861 861 861 861 861
792 794 796 798 800 801 803 805 807 809 811 812 813 815 816 817 819 820 822 823 825 826 828 829 831 832 834 836 838 840 841 843 844 845 847 849 851 853 855 855 856 856 857 858 859 860 861 861 861 860 860 860
789 790 792 793 795 797 800 802 804 806 808 809 811 813 814 816 817 818 819 821 822 824 826 827 829 830 832 834 836 838 840 841 842 844 845 847 849 851 853 854 854 855 856 857 857 857 859 860 860 859 859 859
789 790 792 793 794 795 798 800 802 803 805 807 809 810 812 814 815 816 817 818 820 822 823 825 827 828 830 831 833 835 837 839 840 841 843 844 846 848 851 852 852 853 854 854 854 855 855 854 855 856 856 856
789 791 793 794 794 795 797 799 801 803 804 806 807 808 810 811 812 814 815 816 818 819 821 823 824 826 827 829 831 833 834 835 836 838 840 841 843 845 846 848 849 849 851 852 852 852 851 850 850 848 847 850
788 790 791 793 795 797 798 799 801 802 802 803 805 806 807 808 810 811 813 814 815 817 818 820 821 823 824 826 828 829 831 832 833 835 836 838 840 841 842 844 845 846 847 848 848 847 846 847 846 842 841 845
785 787 788 789 790 792 795 796 796 795 796 798 800 802 803 805 807 809 810 811 813 814 816 817 819 820 821 823 824 826 828 829 830 832 833 834 837 838 840 841 842 842 844 845 845 844 843 843 842 840 841 842
782 783 784 785 786 787 789 790 790 791 793 795 796 799 801 802 804 806 807 809 810 811 813 814 816 817 818 819 821 823 824 826 827 828 829 831 833 835 837 838 838 839 840 842 842 842 842 841 841 841 842 840